Location: Dover
(48.8500°N, 53.9833°W)
Time: 06:13:34
(UTC+00:00)

Cosmos 1844 - Pass Details

Date: 14 November 2025
Orbit: 822 x 865 km, 70.9° (Epoch: 16 December)

Event Time Altitude Azimuth Distance (km) Brightness Sun altitude
Rises 20:18:48 0° 219° (SW) 3,437 8.2 -4.2°
Reaches altitude 10° 20:21:18 10° 223° (SW) 2,502 7.5 -4.5°
Maximum altitude 20:26:59 59° 303° (WNW) 995 4.4 -5.4°
Drops below altitude 10° 20:32:40 10° 23° (NNE) 2,499 5.8 -6.3°
Sets 20:35:10 0° 27° (NNE) 3,433 6.4 -6.6°
